[[{"header":{"parameterUnit":"m.s-1","parameterCategory":1,"la1":30.2991,"la2":30.254,"lo1":-89.0895,"lo2":-89.0444,"dy":0.0017,"dx":0.0017,"nx":28,"ny":28,"refTime":"2025-06-17T03:00:00:Z","depth":0,"parameterNumber":2,"parameterNumberName":"U-component_of_WINDS"},"data":[0,0,0,0,0,0,0,0,0,0,0,0,0,0,0,0,0,0,0,0,0,0,0,0,0,0,0,0,0,0,0,0,0,0,0,0,0,0,0,0,0,0,0,0,0,0,0,0,0,0,0,0,0,0,0,0,0,0,0.7286,0.7286,0,0.7323,0.7323,0.7323,0.7337,0.7336,0.7336,0.7336,0.737,0.7371,0.7372,0,0,0,0,0,0,0,0,0,0,0,0,0,0.7222,0.7223,0.7286,0.7286,0.7287,0.7322,0.7323,0.7323,0.7337,0.7336,0.7336,0.7336,0.737,0.7371,0.7373,0,0,0,0,0,0,0,0,0,0,0,0,0,0.7253,0.7224,0.7286,0.7297,0.7299,0.7322,0.7323,0.7324,0.7337,0.7336,0.7336,0.7336,0.737,0.7371,0.7373,0.7386,0,0,0.7377,0.7378,0,0,0,0,0,0,0,0,0.7252,0.7256,0.7295,0.7297,0.7298,0.7325,0.7313,0.7344,0.7337,0.7322,0.7336,0.7336,0.7355,0.7358,0.7365,0.7388,0.7389,0.7378,0.7379,0.7379,0.738,0,0,0,0,0,0,0,0.7249,0.7254,0.73,0.7296,0.7298,0.73,0.7304,0.7319,0.7339,0.7323,0.7324,0.7329,0.7356,0.7364,0.7366,0.739,0.7378,0.7379,0.738,0.738,0.7424,0.7424,0,0,0,0,0,0,0.7246,0.7252,0.7299,0.7301,0.7274,0.7301,0.7306,0.7316,0.7339,0.7342,0.7329,0.7329,0.7361,0.7364,0.7367,0.7384,0.7379,0.7381,0.7382,0.7423,0.7424,0.7424,0,0,0,0,0,0,0.7244,0.725,0.7297,0.7277,0.7283,0.7302,0.7314,0.7317,0.7325,0.7343,0.7346,0.7333,0.7361,0.7365,0.7381,0.7385,0.7381,0.7383,0.7423,0.7424,0.7424,0.7417,0,0,0,0,0,0,0.7243,0.7249,0.7256,0.7277,0.7284,0.7312,0.7314,0.7318,0.7328,0.7329,0.7348,0.7351,0.7361,0.7379,0.7383,0.7387,0.7384,0.7423,0.7423,0.7424,0.7417,0.7417,0.7417,0,0,0,0,0,0.724,0.7252,0.7256,0.7261,0.7293,0.7312,0.7316,0.7328,0.7328,0.7334,0.7346,0.7351,0.7384,0.738,0.7385,0.739,0.7423,0.7423,0.7424,0.7417,0.7417,0.7417,0,0,0,0,0,0,0.7229,0.7255,0.726,0.7279,0.7293,0.7314,0.7322,0.7328,0.7342,0.7342,0.7356,0.736,0.7375,0.7384,0.7379,0.7403,0.7404,0.7405,0.7397,0.7397,0.7397,0.7395,0.7385,0,0,0,0,0,0.7229,0.7244,0.7265,0.7279,0.7287,0.7303,0.7312,0.732,0.7335,0.7341,0.7354,0.7368,0.7381,0.739,0.7403,0.7418,0.7422,0.7424,0.7424,0.7424,0.7425,0.7433,0.7434,0.7426,0.7426,0.7426,0,0,0.7228,0.7244,0.7253,0.7278,0.729,0.7304,0.7308,0.7323,0.7333,0.7343,0.736,0.7369,0.7385,0.7401,0.7408,0.7409,0.7428,0.7425,0.7425,0.7426,0.7434,0.7434,0.7435,0.7426,0.7426,0.7426,0,0,0.7234,0.7248,0.7262,0.7274,0.7293,0.7304,0.7307,0.7327,0.7335,0.7351,0.7359,0.7371,0.7394,0.7405,0.7413,0.7423,0.7428,0.7427,0.7427,0.7435,0.7436,0.7436,0.7439,0.744,0.7428,0.7428,0.7428,0,0.7231,0.7254,0.7268,0.7282,0.7292,0.7303,0.7316,0.7327,0.7349,0.7355,0.7356,0.7385,0.7396,0.7414,0.7416,0.7423,0.7426,0.7425,0.7435,0.7435,0.7436,0.7439,0.744,0.7427,0.7427,0.7427,0.7428,0,0.7248,0.7264,0.7272,0.7294,0.7305,0.7319,0.7333,0.7343,0.735,0.736,0.7376,0.739,0.7407,0.7411,0.7418,0.743,0.743,0.7432,0.7433,0.7437,0.7439,0.7441,0.7427,0.7427,0.7427,0.7427,0,0,0.7249,0.7278,0.7281,0.7291,0.7312,0.7324,0.7337,0.7354,0.7362,0.7376,0.7387,0.7406,0.7408,0.7418,0.7426,0.7432,0.7438,0.7434,0.7434,0.7434,0.7452,0.745,0.7451,0.7442,0.7442,0.7442,0.745,0,0.7258,0.7284,0.7296,0.7316,0.733,0.734,0.7351,0.7365,0.7375,0.7387,0.7397,0.741,0.7413,0.7418,0.7425,0.7436,0.7442,0.7436,0.7451,0.7451,0.7447,0.7453,0.7451,0.7458,0.7452,0.7452,0.7452,0,0.7272,0.7287,0.7309,0.7328,0.7334,0.7345,0.7361,0.7372,0.7387,0.7394,0.7405,0.7412,0.7425,0.7425,0.7442,0.7438,0.7444,0.745,0.7451,0.7453,0.7452,0.7454,0.746,0.7461,0.7454,0.7454,0.7454,0,0.7269,0.7295,0.7311,0.732,0.7343,0.7349,0.7359,0.7374,0.7383,0.7397,0.7403,0.7417,0.7425,0.7436,0.7446,0.7445,0.7463,0.7463,0.7468,0.7467,0.7471,0.7471,0.7478,0.7476,0.7476,0.7476,0.7475,0,0.7278,0.729,0.7311,0.7321,0.7335,0.7348,0.7361,0.7371,0.7385,0.7396,0.7405,0.7415,0.7428,0.744,0.7448,0.7461,0.7464,0.7469,0.7471,0.7468,0.7468,0.7473,0.7473,0.7476,0.7476,0.7476,0.7476,0,0.7277,0.7292,0.731,0.7331,0.7336,0.7345,0.7362,0.7371,0.7381,0.7395,0.7399,0.7414,0.7428,0.744,0.7458,0.7463,0.7476,0.7479,0.7472,0.7473,0.7476,0.7476,0.7487,0.7489,0.7486,0.7486,0.7486,0,0.7282,0.7292,0.7314,0.7323,0.7332,0.7346,0.7356,0.7369,0.7378,0.7396,0.7403,0.7417,0.743,0.7451,0.7463,0.7476,0.7479,0.7482,0.7481,0.7478,0.7479,0.7478,0.7479,0.7482,0.7482,0.7482,0.7482,0,0.7288,0.7295,0.7309,0.7326,0.7337,0.735,0.7364,0.737,0.7385,0.7395,0.741,0.742,0.7438,0.7452,0.7467,0.7475,0.7481,0.7482,0.7484,0.7481,0.7476,0.7479,0.7471,0.7482,0.7482,0.7482,0.7482,0.7482,0.729,0.7299,0.7316,0.7332,0.7343,0.7356,0.7365,0.7377,0.739,0.7407,0.7413,0.7428,0.7442,0.7462,0.7471,0.7482,0.7482,0.7485,0.7485,0.7486,0.7485,0.7475,0.7484,0.7484,0.7484,0.7484,0.7484,0,0.7296,0.7308,0.7322,0.7341,0.7353,0.7358,0.7373,0.7382,0.7395,0.7408,0.7421,0.7437,0.745,0.7463,0.7477,0.7483,0.7486,0.7487,0.7486,0.7488,0.7484,0.7481,0.7484,0.7484,0.7484,0.7484,0.7484,0.7484,0.7301,0.7317,0.7326,0.7347,0.7358,0.7373,0.7381,0.7392,0.7403,0.7421,0.7433,0.7441,0.7454,0.7469,0.7481,0.7484,0.7489,0.7488,0.7492,0.7488,0.7488,0.7488,0.7485,0.7489,0.7489,0.7495,0.7495,0.7496]},{"header":{"parameterUnit":"m.s-1","parameterCategory":1,"la1":30.2991,"la2":30.254,"lo1":-89.0895,"lo2":-89.0444,"dy":0.0017,"dx":0.0017,"nx":28,"ny":28,"refTime":"2025-06-17T03:00:00:Z","depth":0,"parameterNumber":3,"parameterNumberName":"V-component_of_WINDS"},"data":[0,0,0,0,0,0,0,0,0,0,0,0,0,0,0,0,0,0,0,0,0,0,0,0,0,0,0,0,0,0,0,0,0,0,0,0,0,0,0,0,0,0,0,0,0,0,0,0,0,0,0,0,0,0,0,0,0,0,4.1811,4.1812,0,4.1943,4.1945,4.1946,4.202,4.202,4.202,4.202,4.2145,4.2148,4.2151,0,0,0,0,0,0,0,0,0,0,0,0,0,4.1611,4.1615,4.1811,4.1812,4.1814,4.1943,4.1945,4.1947,4.2019,4.202,4.202,4.202,4.2144,4.2148,4.2152,0,0,0,0,0,0,0,0,0,0,0,0,0,4.1716,4.1616,4.181,4.1866,4.1873,4.1943,4.1945,4.1947,4.2019,4.202,4.202,4.202,4.2143,4.2148,4.2152,4.2174,0,0,4.2167,4.2169,0,0,0,0,0,0,0,0,4.171,4.1723,4.1856,4.1862,4.187,4.1966,4.1921,4.2023,4.2019,4.1963,4.202,4.2021,4.2085,4.2094,4.2118,4.218,4.2185,4.2167,4.217,4.2172,4.2173,0,0,0,0,0,0,0,4.1703,4.1718,4.1863,4.1858,4.1866,4.1882,4.1897,4.194,4.202,4.1968,4.1974,4.1989,4.2088,4.2113,4.2121,4.2187,4.2167,4.2171,4.2174,4.2176,4.2275,4.2275,0,0,0,0,0,0,4.1688,4.1711,4.1859,4.1867,4.1789,4.1885,4.1902,4.1934,4.202,4.2033,4.1989,4.1992,4.2105,4.2116,4.2126,4.2159,4.2172,4.2176,4.2179,4.2276,4.2275,4.2275,0,0,0,0,0,0,4.1683,4.17,4.1853,4.1791,4.1812,4.1888,4.1924,4.1937,4.1962,4.2036,4.2049,4.2,4.2106,4.2119,4.2163,4.2164,4.2178,4.2182,4.2276,4.2276,4.2275,4.2224,0,0,0,0,0,0,4.1677,4.1698,4.1709,4.1791,4.1815,4.189,4.1924,4.1939,4.1971,4.1977,4.205,4.2062,4.2107,4.2155,4.2167,4.2171,4.2186,4.2276,4.2276,4.2275,4.2226,4.2222,4.2218,0,0,0,0,0,4.167,4.1687,4.171,4.1727,4.1831,4.189,4.1904,4.1958,4.1971,4.1981,4.2029,4.206,4.2162,4.2159,4.2173,4.2178,4.2276,4.2276,4.2275,4.2227,4.2222,4.2219,0,0,0,0,0,0,4.1599,4.1698,4.1725,4.1769,4.1821,4.1903,4.1918,4.1951,4.1998,4.2001,4.2063,4.2079,4.2116,4.2151,4.2146,4.2205,4.2222,4.2225,4.2181,4.2177,4.2173,4.2164,4.219,0,0,0,0,0,4.1589,4.1633,4.1716,4.1746,4.1772,4.184,4.1868,4.1906,4.1961,4.1982,4.2033,4.2082,4.2126,4.2153,4.2197,4.2231,4.2248,4.2241,4.2237,4.2234,4.2235,4.2257,4.2256,4.2274,4.2274,4.2274,0,0,4.1568,4.1627,4.165,4.1734,4.1779,4.182,4.1858,4.1899,4.193,4.1987,4.2034,4.2072,4.2131,4.2171,4.219,4.2201,4.2234,4.2234,4.2231,4.2234,4.2257,4.2255,4.2253,4.2274,4.2274,4.2274,0,0,4.1551,4.16,4.1633,4.1678,4.1748,4.1794,4.1801,4.1879,4.1908,4.1956,4.2,4.2036,4.2109,4.215,4.2181,4.2182,4.2212,4.2194,4.2175,4.2196,4.2194,4.2193,4.2195,4.2194,4.2195,4.2195,4.2195,0,4.1515,4.1583,4.1644,4.1685,4.172,4.1778,4.1811,4.185,4.1928,4.195,4.1962,4.2057,4.2101,4.2151,4.2152,4.2174,4.2184,4.2186,4.219,4.219,4.219,4.2192,4.2192,4.2192,4.2193,4.2193,4.2193,0,4.1535,4.1581,4.1598,4.1678,4.1715,4.175,4.1816,4.1845,4.188,4.1923,4.1971,4.2026,4.2083,4.2098,4.213,4.2153,4.2158,4.2179,4.2198,4.2184,4.2187,4.2188,4.2189,4.219,4.219,4.2191,0,0,4.1476,4.1592,4.1598,4.1635,4.1717,4.1752,4.179,4.185,4.1875,4.1926,4.1959,4.2021,4.2042,4.2077,4.2114,4.2132,4.2131,4.2151,4.2153,4.2146,4.2161,4.2146,4.2146,4.2152,4.2152,4.2152,4.2156,0,4.1472,4.1548,4.1606,4.1658,4.1701,4.1758,4.1791,4.1843,4.1885,4.1926,4.197,4.2014,4.2038,4.2059,4.208,4.2127,4.2135,4.2127,4.2181,4.2182,4.2166,4.2147,4.2131,4.2132,4.2158,4.2158,4.2158,0,4.1477,4.1533,4.1591,4.1671,4.1691,4.172,4.1781,4.1819,4.1879,4.1908,4.1949,4.1988,4.2029,4.2044,4.21,4.2094,4.2119,4.2145,4.2147,4.2154,4.217,4.2155,4.2133,4.2134,4.216,4.216,4.216,0,4.143,4.1519,4.1566,4.1596,4.169,4.1709,4.1748,4.1809,4.1842,4.1893,4.1916,4.1969,4.1998,4.2038,4.2091,4.2097,4.2142,4.2161,4.2166,4.2164,4.2173,4.2172,4.2156,4.2187,4.2187,4.2187,4.2187,0,4.142,4.1454,4.1547,4.1576,4.1615,4.1679,4.1715,4.1758,4.1812,4.1849,4.1899,4.1931,4.1999,4.2038,4.2079,4.212,4.2132,4.2156,4.2166,4.2152,4.2149,4.217,4.2171,4.2187,4.2187,4.2187,4.2187,0,4.1375,4.1438,4.1494,4.158,4.1602,4.1627,4.1699,4.1727,4.1773,4.1819,4.1833,4.1903,4.1953,4.201,4.2076,4.2104,4.2142,4.2157,4.2123,4.213,4.2132,4.2132,4.213,4.2134,4.2161,4.216,4.216,0,4.1365,4.1393,4.1483,4.1514,4.1553,4.16,4.1636,4.1699,4.1734,4.1806,4.1825,4.188,4.1928,4.2004,4.2059,4.2111,4.2128,4.2124,4.2135,4.2121,4.2129,4.2127,4.2131,4.212,4.2119,4.2119,4.2119,0,4.1341,4.1372,4.1423,4.1486,4.1528,4.1579,4.1632,4.1653,4.1727,4.1762,4.1817,4.1854,4.1925,4.1978,4.2037,4.2074,4.2108,4.2115,4.2119,4.2105,4.2085,4.2097,4.2116,4.2114,4.2115,4.2115,4.2115,4.2115,4.1314,4.1342,4.1411,4.1467,4.1515,4.1564,4.1596,4.1648,4.1695,4.1761,4.1795,4.1849,4.1908,4.1992,4.2028,4.2069,4.208,4.2086,4.2087,4.2088,4.2085,4.2078,4.208,4.208,4.208,4.208,4.208,0,4.1293,4.1342,4.1393,4.1468,4.1511,4.1544,4.1605,4.1638,4.1686,4.1741,4.1788,4.185,4.1902,4.1962,4.2018,4.2039,4.2056,4.2052,4.2051,4.2059,4.2071,4.2063,4.2037,4.2037,4.2037,4.2037,4.2037,4.2037,4.1288,4.1339,4.1378,4.1453,4.15,4.1557,4.1589,4.1633,4.1678,4.1747,4.1792,4.1833,4.1889,4.195,4.1999,4.2015,4.2033,4.2024,4.2045,4.2055,4.2058,4.2062,4.2054,4.2028,4.2028,4.203,4.203,4.203]}]]